Regional Weather Roundup
Issued by NWS

Home | Current Version | Previous Version | Graphics & Text | Print | Product List | Glossary On
Versions: 1 2 3 4 5 6 7 8 9 10 11 12 13 14 15 16 17 18 19 20 21 22 23 24 25 26 27 28 29 30 31 32 33 34 35 36 37 38 39 40 41 42 43 44 45 46 47 48 49 50
000
ASUS43 KDMX 042207
RWRIA

WEATHER ROUNDUP FOR IOWA
NATIONAL WEATHER SERVICE DES MOINES IA
500 PM CDT TUE AUG 04 2015

NOTE: "FAIR" INDICATES FEW OR NO CLOUDS BELOW 12,000 FEET WITH NO
SIGNIFICANT WEATHER AND/OR OBSTRUCTIONS TO VISIBILITY.

* - THESE STATIONS ARE NOT NWS STATIONS...THUS NOT UNDER NWS
QUALITY CONTROL.  THEY ALSO DO NOT REPORT WEATHER SUCH
AS PRECIPITATION OR FOG.

IAZ001>003-012>014-020>022-031>034-043>046-042300-
   NORTHWEST IOWA

CITY           SKY/WX    TMP DP  RH WIND       PRES   REMARKS
CARROLL *      SUNNY     77  63  61 SE8       29.99R
CHEROKEE *     PTSUNNY   79  64  61 E6        29.99S HX  81
DENISON *      SUNNY     77  63  61 SE6       29.97S
LE MARS *      MOSUNNY   77  64  65 VRB5      29.99S
ORANGE CITY *  SUNNY     77  61  57 SE5       29.99F
SHELDON *      SUNNY     77  63  61 E5        29.99S
SIOUX CITY     SUNNY     80  60  50 VRB7      29.97S HX  81
SPENCER        CLOUDY    78  58  49 E9        30.00S
STORM LAKE *   SUNNY     75  64  69 E6        30.01R
$$

IAZ055>058-069>071-079>083-090>094-042300-
   SOUTHWEST IOWA

CITY           SKY/WX    TMP DP  RH WIND       PRES   REMARKS
ATLANTIC *     SUNNY     75  66  73 E7        29.98R
AUDUBON *      SUNNY     75  64  69 E6        30.00R
CLARINDA *     SUNNY     81  72  74 S15       29.94S HX  84
COUNCIL BLFS * PTSUNNY   73  68  83 NE9       29.97R
CRESTON *      SUNNY     73  68  83 E7G16     29.97F
HARLAN  *      SUNNY     75  70  83 E5        30.02R
LAMONI         CLOUDY    77  68  73 E5        29.96S
RED OAK *      CLOUDY    77  73  88 NE6       29.96R
SHENANDOAH *   SUNNY     82  72  69 S13G22    29.92S HX  87
$$

IAZ047>049-059>061-072>074-084-042300-
   CENTRAL IOWA

CITY           SKY/WX    TMP DP  RH WIND       PRES   REMARKS
AMES           MOSUNNY   79  63  57 S3        29.97R HX  80
ANKENY *       SUNNY     77  63  61 E6        29.97S
CHARITON *     MOSUNNY   73  64  73 SE6       29.96F
DES MOINES     PTSUNNY   78  58  49 E12       29.96S
GRINNELL*      PTSUNNY   77  63  61 SE5       29.99R
KNOXVILLE *    SUNNY     75  63  64 VRB7      29.96R HAZE
MARSHALLTOWN   MOSUNNY   78  62  57 E6        29.97R HX  80
PELLA *        CLOUDY    79  66  65 E6        29.98S HX  81
PERRY *          N/A     79  61  53 SE7       29.99R HX  80
$$

IAZ004>006-015-016-023>025-035-036-042300-
   NORTH CENTRAL IOWA

CITY           SKY/WX    TMP DP  RH WIND       PRES   REMARKS
ALGONA *       SUNNY     75  57  53 NE5       30.00S
CLARION *      SUNNY     77  59  53 NE7G13    29.99R
ESTHERVILLE    PTSUNNY   75  56  51 CALM      30.00S
FORT DODGE *   MOSUNNY   79  63  57 NE3       30.00R HX  80
MASON CITY     PTSUNNY   77  59  53 NE8       30.00S
FOREST CITY *  SUNNY     73  50  43 NE3       30.00R
IOWA FALLS *     N/A     79  57  47 NE6       30.00R HX  80
$$

IAZ007>011-017>019-026>030-037>042-050>054-066-042300-
   NORTHEAST IOWA

CITY           SKY/WX    TMP DP  RH WIND       PRES   REMARKS
CEDAR RAPIDS   PTSUNNY   80  62  54 CALM      29.96F HX  81
CHARLES CITY * SUNNY     75  57  53 NE6       29.99S
CLINTON *      PTSUNNY   79  59  50 N7        29.98F HX  80
DECORAH *      SUNNY     75  54  46 VRB7      29.98S
DUBUQUE        MOSUNNY   78  55  44 N7        29.98F
MONTICELLO *   SUNNY     81  55  41 NW7       29.96S HX  80
OELWEIN *      SUNNY     75  57  53 NE6       29.98F
WATERLOO       PTSUNNY   78  56  46 NE7       29.96S
$$

IAZ064-065-067-068-078-042300-
   EAST CENTRAL IOWA

CITY           SKY/WX    TMP DP  RH WIND       PRES   REMARKS
DAVENPORT      PTSUNNY   80  61  52 MISG      29.96F HX  81
IOWA CITY      PTSUNNY   79  61  53 NE6       29.97F HX  80
MT. PLEASANT * CLOUDY    79  59  50 CALM      29.98F HX  80
MUSCATINE *    SUNNY     81  59  47 CALM      29.96S HX  81
QUAD CITIES    CLOUDY    81  59  47 N7        29.95F HX  81
$$

IAZ062-063-075>077-085>089-095>099-042300-
   SOUTHEAST IOWA

CITY           SKY/WX    TMP DP  RH WIND       PRES   REMARKS
BURLINGTON     PTSUNNY   76  65  68 S7        29.98S
FAIRFIELD *    SUNNY     75  59  57 SE6       29.98S
FORT MADISON * SUNNY     75  63  64 S6        29.99F
KEOKUK *       SUNNY     77  64  65 E6        29.97F
OSKALOOSA *      N/A     75  63  64 SE7       29.97F
CENTERVILLE *  SUNNY     73  66  78 E6        29.99S
OTTUMWA        PTSUNNY   76  62  62 E9        29.95F
WASHINGTON *   SUNNY     77  64  65 S3        29.99R
$$

ABBREVIATIONS USED IN REMARKS
   TC - TEMPERATURES IN CELSIUS
  WCI - WIND CHILL INDEX
   HX - HEAT INDEX
  VSB - VISIBILITY
$$



USA.gov is the U.S. government's official web portal to all federal, state and local government web resources and services.